TimeMST,TemperatureF,Dew PointF,Humidity,Sea Level PressureIn,VisibilityMPH,Wind Direction,Wind SpeedMPH,Gust SpeedMPH,PrecipitationIn,Events,Conditions,WindDirDegrees,DateUTC
12:53 AM,19.9,3.0,48,30.42,10.0,West,25.3,32.2,N/A,,Clear,280,2013-01-03 07:53:00
1:00 AM,21.2,3.2,46,30.25,10.0,West,26.5,34.5,N/A,,Clear,270,2013-01-03 08:00:00
1:53 AM,18.0,3.0,52,30.42,10.0,WNW,19.6,-,N/A,,Clear,300,2013-01-03 08:53:00
2:53 AM,21.9,1.9,42,30.39,10.0,WSW,9.2,20.7,N/A,,Clear,250,2013-01-03 09:53:00
3:53 AM,19.9,1.9,46,30.40,10.0,West,25.3,32.2,N/A,,Clear,270,2013-01-03 10:53:00
4:53 AM,19.0,1.9,47,30.40,10.0,West,20.7,-,N/A,,Clear,280,2013-01-03 11:53:00
5:53 AM,23.0,1.9,40,30.36,10.0,WSW,26.5,34.5,N/A,,Clear,250,2013-01-03 12:53:00
6:53 AM,23.0,1.0,39,30.36,10.0,West,28.8,36.8,N/A,,Clear,260,2013-01-03 13:53:00
7:53 AM,19.9,1.9,46,30.38,10.0,WNW,21.9,-,N/A,,Clear,290,2013-01-03 14:53:00
8:53 AM,24.1,1.9,38,30.37,10.0,WSW,29.9,35.7,N/A,,Clear,250,2013-01-03 15:53:00
9:53 AM,28.0,1.9,33,30.35,10.0,West,26.5,32.2,N/A,,Clear,270,2013-01-03 16:53:00
10:53 AM,30.0,3.0,32,30.34,10.0,West,27.6,35.7,N/A,,Clear,260,2013-01-03 17:53:00
11:53 AM,34.0,3.9,28,30.31,10.0,West,28.8,34.5,N/A,,Clear,260,2013-01-03 18:53:00
12:53 PM,33.1,5.0,31,30.28,10.0,West,24.2,33.4,N/A,,Clear,270,2013-01-03 19:53:00
1:53 PM,34.0,5.0,30,30.28,10.0,West,23.0,-,N/A,,Clear,270,2013-01-03 20:53:00
2:53 PM,34.0,6.1,31,30.27,10.0,West,24.2,-,N/A,,Clear,270,2013-01-03 21:53:00
3:53 PM,34.0,5.0,30,30.27,10.0,West,20.7,-,N/A,,Clear,280,2013-01-03 22:53:00
4:53 PM,30.0,6.1,36,30.29,10.0,WNW,20.7,-,N/A,,Clear,290,2013-01-03 23:53:00
5:53 PM,32.0,6.1,34,30.27,10.0,West,25.3,34.5,N/A,,Clear,280,2013-01-04 00:53:00
6:53 PM,30.0,6.1,36,30.27,10.0,West,25.3,34.5,N/A,,Clear,280,2013-01-04 01:53:00
7:53 PM,36.0,7.0,30,30.25,10.0,WSW,28.8,39.1,N/A,,Clear,250,2013-01-04 02:53:00
8:53 PM,35.1,7.0,31,30.22,10.0,West,26.5,35.7,N/A,,Clear,270,2013-01-04 03:53:00
9:53 PM,34.0,8.1,34,30.20,10.0,West,26.5,32.2,N/A,,Clear,260,2013-01-04 04:53:00
10:53 PM,26.1,9.0,49,30.21,10.0,Calm,Calm,-,N/A,,Clear,0,2013-01-04 05:53:00
11:53 PM,35.1,9.0,34,30.15,10.0,West,28.8,41.4,N/A,,Clear,270,2013-01-04 06:53:00